Weather History for Lima, OH

Change the Weather History Date:

Monday, January 21, 2013

  Actual Average (KFDY) Record (KFDY)
Temperature  
Mean Temperature 14 °F -  
Max Temperature 19 °F 31 °F 55 °F (1974)
Min Temperature 9 °F 19 °F -15 °F (1985)
Degree Days  
Heating Degree Days 51    
Moisture  
Dew Point 6 °F    
Average Humidity 64    
Maximum Humidity 73    
Minimum Humidity 47    
Precipitation  
Precipitation 0.00 in - - ()
Sea Level Pressure  
Sea Level Pressure 30.09 in    
Wind  
Wind Speed 15 mph (West)    
Max Wind Speed 26 mph    
Max Gust Speed 36 mph    
Visibility 7 miles    
Events Snow    
Averages and records for this station are not official NWS values.
T = Trace of Precipitation, MM = Missing Value Source: NWS Daily Summary

Daily Weather History Graph

Daily Weather History Graph

Search for Another Location

Airport:

Trip Planner

Search our weather history database for the weather conditions in past years. The results will help you decide how hot, cold, wet, or windy it might be!

Date:

Astronomy

Jan. 21, 2013 Rise Set
Actual Time 7:54 AM EST 5:40 PM EST
Civil Twilight 7:25 AM EST 6:10 PM EST
Nautical Twilight 6:51 AM EST 6:43 PM EST
Astronomical Twilight 6:19 AM EST 7:16 PM EST
Moon 1:19 PM EST 3:22 AM EST
Length of Visible Light 10h 45m
Length of Day
9h 46m
Waxing Gibbous, 75% of the Moon is Illuminated
Jan 21
Waxing Gibbous
Jan 26
Full
Feb 3
Last Quarter
Feb 10
New
Feb 17
First Quarter

Hourly Weather History & Observations

Time (EST) Temp. Windchill Dew Point Humidity Pressure Visibility Wind Dir Wind Speed Gust Speed Precip Events Conditions
12:53 AM 19.9 °F 10.1 °F 8.1 °F 60% 30.17 in 10.0 mi NW 8.1 mph - N/A   Overcast
1:53 AM 19.9 °F 12.1 °F 8.1 °F 60% 30.15 in 10.0 mi West 5.8 mph - N/A   Overcast
2:53 AM 19.9 °F 12.1 °F 8.1 °F 60% 30.14 in 10.0 mi West 5.8 mph - N/A   Overcast
3:53 AM 19.9 °F 12.1 °F 8.1 °F 60% 30.12 in 10.0 mi WNW 5.8 mph - N/A   Overcast
4:53 AM 19.9 °F 9.3 °F 9.0 °F 62% 30.12 in 10.0 mi SW 9.2 mph - N/A   Overcast
5:53 AM 19.9 °F 7.3 °F 10.0 °F 65% 30.09 in 10.0 mi West 12.7 mph - N/A   Overcast
7:53 AM 19.0 °F 5.0 °F 9.0 °F 65% 30.09 in 10.0 mi West 15.0 mph - N/A   Overcast
8:53 AM 18.0 °F 4.2 °F 10.0 °F 71% 30.09 in 3.0 mi West 13.8 mph - 0.00 in Snow Light Snow
8:56 AM 17.6 °F 3.7 °F 10.4 °F 73% 30.04 in 1.8 mi West 13.8 mph - 0.00 in Snow Light Snow
9:14 AM 19.4 °F 6.0 °F 10.4 °F 68% 30.03 in 3.0 mi West 13.8 mph - 0.00 in Snow Light Snow
9:25 AM 17.6 °F 3.7 °F 8.6 °F 68% 30.04 in 10.0 mi West 13.8 mph - 0.00 in   Overcast
9:41 AM 17.6 °F 0.9 °F 8.6 °F 68% 30.04 in 10.0 mi WSW 20.7 mph 25.3 mph 0.00 in   Overcast
9:53 AM 18.0 °F 2.2 °F 8.1 °F 65% 30.09 in 10.0 mi West 18.4 mph - 0.00 in   Overcast
10:04 AM 19.4 °F 3.6 °F 8.6 °F 63% 30.04 in 7.0 mi West 19.6 mph - 0.00 in Snow Light Snow
10:53 AM 18.0 °F 2.2 °F 7.0 °F 62% 30.09 in 10.0 mi West 18.4 mph 28.8 mph 0.00 in   Overcast
11:07 AM 17.6 °F 2.7 °F 10.4 °F 73% 30.04 in 2.5 mi West 16.1 mph 21.9 mph 0.00 in Snow Light Snow
11:21 AM 17.6 °F 2.2 °F 10.4 °F 73% 30.04 in 1.0 mi West 17.3 mph - 0.00 in Snow Light Snow
11:28 AM 17.6 °F 1.7 °F 10.4 °F 73% 30.04 in 0.8 mi West 18.4 mph 26.5 mph 0.00 in Snow Light Snow
11:34 AM 17.6 °F 0.9 °F 10.4 °F 73% 30.04 in 2.0 mi West 20.7 mph 26.5 mph 0.00 in Snow Light Snow
11:42 AM 17.6 °F 1.3 °F 10.4 °F 73% 30.03 in 5.0 mi West 19.6 mph - 0.00 in Snow Light Snow
11:53 AM 17.1 °F 1.0 °F 8.1 °F 68% 30.07 in 4.0 mi West 18.4 mph 24.2 mph 0.00 in Snow Light Snow
12:17 PM 17.6 °F 0.5 °F 6.8 °F 63% 30.02 in 10.0 mi West 21.9 mph 31.1 mph 0.00 in   Overcast
12:53 PM 18.0 °F 0.6 °F 5.0 °F 57% 30.07 in 10.0 mi West 23.0 mph 28.8 mph 0.00 in   Overcast
1:53 PM 17.1 °F 0.1 °F -0.0 °F 47% 30.06 in 10.0 mi West 20.7 mph 28.8 mph N/A   Mostly Cloudy
2:47 PM 17.6 °F -0.6 °F 6.8 °F 63% 30.03 in 2.5 mi West 25.3 mph 32.2 mph 0.00 in Snow Light Snow
2:53 PM 16.0 °F -0.4 °F 6.1 °F 65% 30.08 in 1.5 mi West 18.4 mph 32.2 mph 0.00 in Snow Light Snow
3:03 PM 17.6 °F 3.2 °F 6.8 °F 63% 30.03 in 2.5 mi West 15.0 mph - 0.00 in Snow Light Snow
3:10 PM 17.6 °F -1.0 °F 6.8 °F 63% 30.03 in 8.0 mi West 26.5 mph 35.7 mph 0.00 in   Overcast
3:51 PM 17.6 °F 0.1 °F 6.8 °F 63% 30.04 in 1.8 mi West 23.0 mph 33.4 mph 0.00 in Snow Light Snow
3:53 PM 16.0 °F -2.5 °F 7.0 °F 68% 30.09 in 1.2 mi West 24.2 mph 34.5 mph 0.00 in Snow Light Snow
3:59 PM 15.8 °F -2.7 °F 8.6 °F 73% 30.05 in 0.5 mi West 24.2 mph 34.5 mph 0.00 in Snow Snow
4:09 PM 15.8 °F -1.5 °F 8.6 °F 73% 30.05 in 0.8 mi West 20.7 mph 27.6 mph 0.00 in Snow Light Snow
4:18 PM 15.8 °F -3.1 °F 6.8 °F 68% 30.06 in 2.5 mi West 25.3 mph 32.2 mph 0.00 in Snow Light Snow
4:25 PM 15.8 °F -1.9 °F 5.0 °F 62% 30.06 in 6.0 mi West 21.9 mph 32.2 mph 0.00 in Snow Light Snow
4:53 PM 15.1 °F -2.0 °F 5.0 °F 64% 30.12 in 9.0 mi West 19.6 mph 29.9 mph 0.00 in   Overcast
5:53 PM 12.9 °F -5.3 °F -0.9 °F 54% 30.13 in 10.0 mi West 20.7 mph 31.1 mph N/A   Partly Cloudy
6:49 PM 12.2 °F -6.3 °F 3.2 °F 67% 30.09 in 5.0 mi WSW 20.7 mph 26.5 mph 0.00 in Snow Light Snow
6:53 PM 12.0 °F -6.0 °F 3.0 °F 67% 30.15 in 9.0 mi West 19.6 mph 26.5 mph 0.00 in   Mostly Cloudy
7:10 PM 12.2 °F -3.1 °F 3.2 °F 67% 30.10 in 10.0 mi West 13.8 mph - N/A   Overcast
7:53 PM 12.0 °F -5.6 °F -2.0 °F 53% 30.16 in 10.0 mi West 18.4 mph - N/A   Overcast
8:53 PM 10.9 °F -9.2 °F -2.9 °F 54% 30.17 in 10.0 mi West 24.2 mph 31.1 mph N/A   Partly Cloudy
9:53 PM 10.0 °F -9.1 °F -2.9 °F 56% 30.19 in 10.0 mi West 20.7 mph 25.3 mph N/A   Scattered Clouds
10:53 PM 9.0 °F -7.9 °F -4.0 °F 56% 30.21 in 10.0 mi West 15.0 mph 25.3 mph N/A   Clear
11:53 PM 9.0 °F -6.6 °F -2.9 °F 59% 30.21 in 10.0 mi West 12.7 mph - N/A   Clear